Regional Weather Roundup
Issued by NWS

Home | Current Version | Previous Version | Text Only | Print | Product List | Glossary Off
Versions: 1 2 3 4 5 6 7 8 9 10 11 12 13 14 15 16 17 18 19 20 21 22 23 24 25 26 27 28 29 30 31 32 33 34 35 36 37 38 39 40 41 42 43 44 45 46 47 48 49 50

000
ASUS43 KLOT 211109
RWRIL

ILLINOIS REGIONAL WEATHER ROUNDUP
NATIONAL WEATHER SERVICE CHICAGO/ROMEOVILLE IL
600 AM CDT FRI JUL 21 2017

NOTE: "FAIR" INDICATES FEW OR NO CLOUDS BELOW 12,000 FEET WITH NO
SIGNIFICANT WEATHER AND/OR OBSTRUCTIONS TO VISIBILITY.

* THESE STATIONS ARE NOT UNDER NWS QUALITY CONTROL. THEY ALSO MAY NOT
  REPORT WEATHER SUCH AS PRECIPITATION OR FOG.

ILZ001-002-007-009-015-016-024-211200-
NORTHWEST ILLINOIS

CITY           SKY/WX    TMP DP  RH WIND       PRES   REMARKS
MOLINE         CLOUDY    72  69  90 SE3       29.96S
STERLING*      LGT RAIN  71  70  96 SE8       29.95F
SAVANNA*       CLOUDY    71  70  97 S3        29.96S
$$

ILZ003-004-008-010-011-017-018-211200-
NORTH CENTRAL ILLINOIS

CITY           SKY/WX    TMP DP  RH WIND       PRES   REMARKS
ROCKFORD       CLOUDY    75  72  90 CALM      29.97F
FREEPORT*      CLOUDY    70  70  99 CALM      29.97F FOG
ROCHELLE*      CLOUDY    71  71  99 S5        29.99F FOG
DE KALB*       CLOUDY    69  69  98 NE6       29.99F
PERU*          RAIN      71  69  95 CALM      29.99S
$$

ILZ005-006-012>014-019>023-211200-
NORTHEAST ILLINOIS

CITY           SKY/WX    TMP DP  RH WIND       PRES   REMARKS
CHICAGO-OHARE  CLOUDY    74  68  81 N3        29.99S
CHICAGO-MIDWAY CLOUDY    76  71  85 N5        29.99S
AURORA         CLOUDY    70  69  97 SE3       29.98F
LANSING*       FOG       71  68  92 CALM      29.99F VSB 1
JOLIET*        CLOUDY    73  73  99 CALM      29.99F FOG
WAUKEGAN       CLOUDY    69  69 100 CALM      30.00R
DUPAGE AIRPORT CLOUDY    71  70  96 CALM      29.99F
WHEELING       CLOUDY    74  72  93 CALM      30.02R
MORRIS*        FOG       72  71  97 CALM      29.97F VSB 1/4
ROMEOVILLE*      N/A     71  69  96 CALM      30.00S FOG
NORTHERLY ISL    N/A     76  68  76 CALM        N/A
$$

LMZ740>746-211200-
SOUTHERN LAKE MICHIGAN

STATION/POSITION SKY/WX   TEMP    WIND        PRES    VSBY  WAVE
                          AIR SEA DIR/SP/G                  HT/PER
                          (F)     (DEG/KT/KT) (MB)    (MI)  (FT/S)
SOUTHERN BUOY              71 70  310/  6/  8 1015.1          0
WILMETTE HARBOR            72 72  280/  2/  2   N/A           0
HARRISON CRIB              76     290/  4/  5   N/A
BURNHAM HARBOR             76                   N/A
CALUMET HARBOR             74     270/  1/  4 1015.5R
BURNS HARBOR               74     260/  3/  4 1016.3R
MICHIGAN CITY              73      90/  2/  2   N/A
MICHIGAN CITY 6N           74 74   CALM  /  2   N/A           1
ST. JOSEPH                 73 74  270/  2/  4 1015.8          0
$$

ILZ025>027-034>036-040-047-049-050-058-095>099-211200-
WEST-CENTRAL ILLINOIS

CITY           SKY/WX    TMP DP  RH WIND       PRES   REMARKS
QUINCY         CLOUDY    76  73  91 SE3       29.97S
GALESBURG*     LGT RAIN  73  69  87 E7        29.97F
MACOMB*        CLOUDY    75  73  92 E7        30.00S
JACKSONVILLE*  PTCLDY    75  73  92 CALM      29.98R
PITTSFIELD*    CLOUDY    75  73  95 S5        30.00R
$$

ILZ028>032-037-038-041>044-048-051>054-059>061-211200-
CENTRAL ILLINOIS

CITY           SKY/WX    TMP DP  RH WIND       PRES   REMARKS
PONTIAC        LGT RAIN  73  72  98 SE7       29.99S
BLOOMINGTON    CLOUDY    73  71  93 E8        30.02R
DECATUR        CLOUDY    77  73  87 SE7       29.99S
PEORIA         CLOUDY    75  71  87 NE3       29.99R
LACON*         LGT RAIN  73  72  99 CALM      29.98R
LINCOLN*       CLOUDY    78  74  87 E7        29.99S HX  80
SPRINGFIELD    CLOUDY    78  76  93 N6        29.98R HX  81
TAYLORVILLE    CLOUDY    73  73  98 S3        29.98S
$$

ILZ033-039-045-046-055>057-062-063-211200-
EAST-CENTRAL ILLINOIS

CITY           SKY/WX    TMP DP  RH WIND       PRES   REMARKS
RANTOUL*       CLOUDY    74  71  91 NE6       30.01R
MATTOON        MOCLDY    78  76  93 CALM      30.00R HX  81
PARIS*         CLOUDY    74  71  92 E5        30.03R THUNDER
$$

ILZ079-100>102-211200-
SOUTHWEST ILLINOIS

CITY           SKY/WX    TMP DP  RH WIND       PRES   REMARKS
ALTON          CLEAR     75  74  97 W3        29.99R
BELLEVILLE     CLEAR     76  74  92 CALM      29.99R
CAHOKIA*       CLEAR     77  72  84 CALM      29.98R
SPARTA*        PTCLDY    79  74  86 CALM      30.01R HX  82
$$

ILZ064>066-069>071-074>076-080>082-084>086-088>090-092>094-211200-
SOUTH-CENTRAL ILLINOIS

CITY           SKY/WX    TMP DP  RH WIND       PRES   REMARKS
CARBONDALE     CLEAR     76  76 100 S3        29.99R
CAIRO*         CLEAR     77  76  95 CALM      30.01R
EFFINGHAM*     CLOUDY    75  75 100 CALM      30.01R FOG
MARION         PTCLDY    79  77  94 S5        30.01R HX  83
MT. VERNON     PTCLDY    75  75 100 CALM      30.00R FOG
CENTRALIA*     PTCLDY    77  76  96 CALM      29.98S
SALEM*         PTCLDY    75  73  92 CALM      29.99R FOG
METROPOLIS*    CLEAR     75  74  98 CALM      30.01S FOG
$$

ILZ067-068-072-073-078-083-087-091-211200-
SOUTHEAST ILLINOIS

CITY           SKY/WX    TMP DP  RH WIND       PRES   REMARKS
LAWRENCEVILLE  PTCLDY    75  74  96 CALM      29.99R
FLORA*         CLOUDY    78  75  91 NE3       29.99R HX  80
FAIRFIELD*     CLOUDY    74  74 100 CALM      29.98R FOG
HARRISBURG*    CLEAR     74  74  98 CALM      30.00R FOG
ROBINSON*      MOCLDY    74  73  95 SW3       29.99S
CARMI*         CLOUDY    74  74  99 S5        29.99R FOG
$$

ABBREVIATIONS USED IN REMARKS
   TC - TEMPERATURE IN CELSIUS
  WCI - WIND CHILL INDEX
   HX - HEAT INDEX
  VSB - VISIBILITY
$$




USA.gov is the U.S. government's official web portal to all federal, state and local government web resources and services.